Tracking 18796 objects as of 19-September-2017
HD Live streaming from Space Station
objects crossing your sky now

COSMOS 2407

Track COSMOS 2407 now!
10-day predictions
COSMOS 2407 is classified as:


NORAD ID: 28380
Int'l Code: 2004-028A
Perigee: 956.4 km
Apogee: 1,013.8 km
Inclination: 83.0 °
Period: 104.6 minutes
Semi major axis: 7356 km
RCS: 1.9044 m2 (large)
Launch date: July 22, 2004
Source: Commonwealth of Independent States (former USSR) (CIS)
Launch site: PLESETSK MISSILE AND SPACE COMPLEX (PKMTR)

Normally part of a six-satellite constellation.
aabbcc
Your satellite tracking list
Your tracking list is empty





NASA's NSSDC Master Catalog

Two Line Element Set (TLE):
1 28380U 04028A   17262.44670016  .00000034  00000-0  18737-4 0  9998
2 28380  82.9582 278.5472 0038989 177.7933 182.3401 13.76044059660961
Source of the keplerian elements: AFSPC